#timestamp,LO_Frequency,Hit,StdDev 
1504296015.5,286047000.4,N,0.3
1504296035.3,286047000.6,N,0.3
1504296055.1,286047000.1,N,0.3
1504296075.9,286047000.5,N,0.3
1504296095.7,286047000.7,N,0.3
1504296115.6,286046998.1,Y,0.0
1504296135.4,286046998.3,P,1.1
1504296155.2,286046998.5,N,1.0
1504296175.1,286046998.9,N,0.8
1504296176.0,286046998.9,N,0.8
1504296195.8,286046998.8,N,0.7
1504296215.7,286047001.0,N,1.0
1504296235.5,286047000.7,N,1.0
1504296255.3,286047000.3,N,1.0
1504296275.2,286046998.1,N,1.0
1504296295.0,286047000.6,N,1.0
1504296295.9,286047000.6,N,1.0
1504296315.8,286046999.8,N,1.0
1504296335.6,286047002.8,N,1.3
1504296355.4,286047002.2,N,1.4
1504296375.3,286047001.7,N,1.4
1504296395.1,286047001.4,N,1.4
1504296415.8,286047001.4,N,1.4
1504296435.7,286047001.7,N,1.4
1504296455.5,286047001.4,N,1.4
1504296475.4,286047004.3,Y,0.0
1504296495.2,286047004.3,P,2.0
1504296515.0,286047003.5,N,1.7
1504296515.9,286047003.5,N,1.5
1504296535.8,286047001.5,N,1.5
1504296555.6,286047001.9,N,1.4
1504296575.5,286047002.5,N,1.3
1504296595.3,286047002.3,N,1.2
1504296615.1,286047002.6,N,1.1
1504296635.9,286047002.5,N,1.1
1504296655.7,286047002.5,N,1.0
1504296675.5,286047002.0,N,1.0
1504296695.4,286046999.8,N,1.2
1504296715.2,286047000.0,N,1.3
1504296735.1,286047000.9,N,1.3
1504296736.0,286047000.9,N,1.3
1504296755.8,286047000.3,N,1.3
1504296775.6,286047001.0,N,1.3
1504296795.5,286046998.1,N,1.5
1504296815.3,286047000.4,N,1.5
1504296835.2,286046998.6,N,1.6
1504296855.9,286046998.2,N,1.7
1504296875.7,286046998.4,N,1.7
1504296895.6,286046998.9,N,1.7
1504296915.4,286046997.1,N,1.9
1504296935.3,286046997.8,N,1.9
1504296955.1,286046997.7,N,2.0
1504296956.0,286046997.7,N,2.0
1504296975.8,286046995.3,N,2.2
1504296995.7,286046995.9,N,2.3
1504297015.5,286046996.1,N,2.4
1504297035.3,286046995.1,N,2.5
1504297055.2,286046996.1,N,2.4
1504297075.0,286046995.9,N,2.4
1504297075.9,286046995.9,N,2.4
1504297095.8,286046996.4,N,2.4
1504297115.6,286046996.0,N,2.4
1504297135.4,286046993.5,N,2.5
1504297155.3,286046993.3,N,2.5
1504297175.1,286046993.8,N,2.5
1504297195.9,286046994.4,N,2.4
1504297215.7,286046995.9,N,2.3
1504297235.5,286046993.8,N,2.3
1504297255.4,286046993.9,N,2.3
1504297275.2,286046994.3,N,2.2
1504297295.0,286046993.7,N,2.1
1504297296.0,286046993.7,N,2.1
1504297315.8,286046994.5,N,1.9
1504297335.6,286046994.7,N,1.9
1504297355.5,286046991.7,Y,0.0
1504297375.3,286046997.6,P,0.9
1504297395.1,286046995.0,P,1.1
1504297415.9,286046995.1,P,1.0
1504297435.7,286046994.9,Y,0.0
1504297455.6,286047000.5,P,2.3
1504297475.4,286047001.0,N,2.3
1504297495.2,286046999.9,N,2.0
1504297515.1,286047000.2,N,1.8
1504297516.0,286047000.2,N,1.7
1504297535.8,286047002.6,N,1.9
1504297555.7,286047000.0,N,1.8
1504297575.5,286047000.4,N,1.7
1504297595.3,286047000.4,N,1.6
1504297615.2,286047002.5,N,1.7
1504297635.0,286047000.1,N,1.6
1504297635.9,286047000.1,N,1.5
1504297655.8,286047000.5,N,1.5
1504297675.6,286047001.1,N,1.4
1504297695.4,286046998.1,N,1.5
1504297715.3,286046998.1,N,1.5
1504297735.1,286047000.5,N,1.5
1504297755.8,286046998.3,N,1.5
1504297775.7,286047001.2,N,1.5
1504297795.5,286046998.7,N,1.5
1504297815.4,286046998.4,N,1.5
1504297835.2,286046998.2,N,1.5
1504297855.0,286046998.5,N,1.5
1504297855.9,286046998.5,N,1.5
1504297875.8,286046999.4,N,1.5
1504297895.6,286046998.8,N,1.4
1504297915.5,286046998.9,N,1.4
1504297935.3,286046998.6,N,1.4
1504297955.1,286046998.4,N,1.4
1504297975.9,286046999.0,N,1.2
1504297995.7,286046999.2,N,1.2
1504298015.6,286046998.6,N,1.2
1504298035.4,286046998.7,N,1.2
1504298055.2,286046998.9,N,1.2
1504298075.1,286046999.0,N,1.2
1504298076.0,286046999.0,N,1.1
1504298095.8,286046999.3,N,1.1
1504298115.6,286046999.1,N,1.0
1504298135.5,286046999.1,N,1.0
1504298155.3,286046999.1,N,0.8
1504298175.2,286046996.6,Y,0.0
1504298195.0,286046999.1,P,0.0
1504298195.9,286046999.1,P,0.0
1504298215.7,286046998.8,P,0.1
1504298235.6,286046998.8,Y,0.0
1504298255.4,286047000.8,P,0.9
1504298275.3,286046998.2,N,1.1
1504298295.1,286047000.8,N,1.1
1504298315.8,286047001.1,N,1.2
1504298335.7,286047001.2,N,1.1
1504298355.5,286047001.0,N,1.1
1504298375.4,286047001.0,N,1.1
1504298395.2,286047000.8,N,1.0
1504298415.0,286047000.8,N,1.0
1504298415.9,286047000.8,N,0.9
1504298435.8,286047000.8,N,0.9
1504298455.6,286047001.1,N,0.9
1504298475.5,286047000.5,N,0.8
1504298495.3,286047000.8,N,0.8
1504298515.1,286047000.4,N,0.8
1504298535.9,286047001.1,N,0.8
1504298555.7,286047000.1,N,0.8
1504298575.5,286047001.1,N,0.7
1504298595.4,286047000.0,N,0.7
1504298615.2,286047001.2,N,0.7
1504298635.1,286046998.3,N,0.9
1504298636.0,286046998.3,N,1.0
1504298655.8,286046998.2,N,1.0
1504298675.6,286046999.4,N,1.0
1504298695.5,286046999.2,N,1.0
1504298715.3,286046998.8,N,1.0
1504298735.2,286046998.7,N,1.1
1504298755.9,286046996.5,Y,0.0
1504298775.7,286046999.3,P,0.4
1504298795.6,286046999.5,N,0.4
1504298815.4,286046998.7,P,0.5
1504298835.3,286046998.5,Y,0.0
1504298855.1,286047000.9,P,0.7
1504298875.8,286046998.1,N,1.1
1504298895.7,286047000.9,N,1.2
1504298915.5,286046999.8,N,1.0
1504298935.4,286046999.7,N,1.0
1504298955.2,286047000.2,N,0.9
1504298975.0,286047000.5,N,0.9
1504298975.9,286047000.5,N,0.8
1504298995.8,286047000.0,N,0.8
1504299015.6,286047000.4,N,0.8
1504299035.4,286046999.9,N,0.7
1504299055.3,286047000.2,N,0.7
1504299075.1,286047002.4,Y,0.0
1504299095.9,286047002.0,P,1.0
1504299115.7,286047000.0,N,0.9
1504299135.6,286047000.4,N,0.8
1504299155.4,286046999.7,N,0.8
1504299175.2,286047002.6,Y,0.0
1504299195.1,286046999.8,P,0.3
1504299196.0,286046999.8,N,0.3
1504299215.8,286047000.1,N,0.3
1504299235.7,286047002.0,Y,0.0
1504299255.5,286047001.5,P,0.7
1504299275.3,286047003.6,P,1.5
1504299295.2,286047003.8,N,1.6
1504299315.0,286047003.8,N,1.5
1504299315.9,286047003.8,N,1.5
1504299335.7,286047003.1,N,1.4
1504299355.6,286047003.7,N,1.3
1504299375.4,286047005.8,Y,0.0
1504299395.3,286047002.7,P,0.1
1504299415.1,286047002.3,P,0.3
1504299435.8,286047002.3,P,0.3
1504299455.7,286047002.0,Y,0.0
1504299475.5,286046998.4,P,2.1
1504299495.4,286046998.2,N,2.0
1504299515.2,286046998.5,N,1.8
1504299535.0,286046998.5,N,1.7
1504299535.9,286046998.5,N,1.5
1504299555.8,286047000.6,N,1.5
1504299575.6,286046998.5,N,1.4
1504299595.5,286046998.4,N,1.4
